[[{"header":{"parameterUnit":"m.s-1","parameterCategory":1,"la1":30.2992,"la2":30.254,"lo1":-89.0895,"lo2":-89.0443,"dy":0.0025,"dx":0.0025,"nx":19,"ny":19,"refTime":"2026-03-08T21:00:00:Z","depth":0,"parameterNumber":2,"parameterNumberName":"U-component_of_WINDS"},"data":[0,0,0,-1.0005,-1.0005,-0.9987,-0.9987,-0.9969,-0.9969,0,0,0,0,0,0,0,0,0,0,0,-1.0014,-1.0014,-1.0005,-1.0005,-0.9987,-0.9987,-0.9969,-0.9969,0,0,0,0,0,0,0,0,0,0,0,-1.0014,-1.0014,-1.0014,-1.0005,-0.9987,-0.9987,-0.9969,-0.998,0,0,0,0,0,0,0,0,0,0,-0.9997,-1.0009,-1.0014,-1.0014,-1.0004,-0.9987,-0.9987,-0.9981,-0.998,-0.9979,0,-0.998,0,-0.9974,-0.9968,-0.9968,0,0,0,-1.0002,-1.001,-1.0002,-1.0014,-1.0004,-0.9987,-0.9994,-0.998,-0.9979,-0.9978,-0.998,-0.9979,-0.9974,-0.9968,-0.9968,-0.9976,-0.9976,0,0,-1.0003,-1.0012,-1.0003,-1.0001,-1.0005,-0.9995,-0.9994,-0.9979,-0.9982,-0.998,-0.9979,-0.9974,-0.9968,-0.9968,-0.9975,-0.9976,0,0,0,-1.0007,-1.0013,-1.0005,-1.0002,-0.9998,-0.9994,-0.9993,-0.9983,-0.998,-0.9978,-0.9974,-0.9968,-0.9968,-0.9975,-0.9975,-0.9993,0,0,0,-1.0008,-1.0016,-1.0006,-1.0012,-0.9999,-0.9991,-0.9997,-0.9981,-0.9979,-0.9974,-0.9968,-0.9967,-0.9975,-0.9975,-0.9992,-1.0,0,0,0,-1.0014,-1.0016,-1.0015,-1.0012,-1.0005,-0.9991,-0.9986,-0.998,-0.9976,-0.9968,-0.9967,-0.9975,-0.9975,-0.9991,-0.9998,-1.0004,0,0,0,-1.0022,-1.0031,-1.0016,-1.0024,-1.0005,-1.0002,-0.9986,-0.9983,-0.9979,-0.9968,-0.9975,-0.9975,-0.9991,-0.9997,-1.0003,-1.001,-1.0014,0,0,-1.0039,-1.0034,-1.0037,-1.0023,-1.0025,-1.0004,-1.0008,-0.9995,-0.9985,-0.9979,-0.9979,-0.9992,-0.9998,-1.0004,-1.0034,-1.0038,0,0,0,-1.0046,-1.0049,-1.0047,-1.0044,-1.0034,-1.0026,-1.0011,-1.0005,-1.0,-0.9984,-0.9996,-0.9999,-1.0002,-1.0005,-1.0008,-1.0009,-0.9977,-0.9977,-0.9977,-1.0083,-1.007,-1.0075,-1.006,-1.0057,-1.0041,-1.0037,-1.0027,-1.0015,-1.0018,-1.0016,-1.0037,-1.004,-1.0042,-1.0044,-1.002,-1.002,-1.002,-1.002,-1.0105,-1.0107,-1.0091,-1.009,-1.0077,-1.0076,-1.0061,-1.0052,-1.0049,-1.0037,-1.0039,-1.0027,-1.0046,-1.0047,-1.0021,-1.0021,-1.0021,-1.002,-1.002,-1.0127,-1.0126,-1.012,-1.0113,-1.0109,-1.0093,-1.0091,-1.0078,-1.0066,-1.0068,-1.0064,-1.0064,-1.0061,-1.0068,-1.0068,-1.0068,-1.0068,-1.0068,-1.0068,-1.0152,-1.0145,-1.0144,-1.0135,-1.013,-1.0123,-1.0107,-1.0103,-1.0094,-1.0085,-1.0085,-1.0072,-1.0051,-1.0045,-1.0069,-1.0069,-1.0068,-1.0068,-1.0068,-1.0178,-1.017,-1.017,-1.0166,-1.0153,-1.0149,-1.0134,-1.0125,-1.0119,-1.0118,-1.0105,-1.0092,-1.0085,-1.0083,-1.0078,-1.0108,-1.0108,-1.0108,-1.0108,-1.0196,-1.0192,-1.0188,-1.0182,-1.0175,-1.0161,-1.016,-1.0147,-1.0133,-1.0128,-1.0122,-1.0115,-1.0113,-1.0108,-1.0105,-1.01,-1.0136,-1.0136,-1.0136,-1.0211,-1.0206,-1.0207,-1.0194,-1.0183,-1.0174,-1.0172,-1.0165,-1.0147,-1.0136,-1.0124,-1.0123,-1.0111,-1.0109,-1.0097,-1.0093,-1.0084,0,0]},{"header":{"parameterUnit":"m.s-1","parameterCategory":1,"la1":30.2992,"la2":30.254,"lo1":-89.0895,"lo2":-89.0443,"dy":0.0025,"dx":0.0025,"nx":19,"ny":19,"refTime":"2026-03-08T21:00:00:Z","depth":0,"parameterNumber":3,"parameterNumberName":"V-component_of_WINDS"},"data":[0,0,0,2.1398,2.1399,2.1474,2.1475,2.1566,2.1567,0,0,0,0,0,0,0,0,0,0,0,2.1372,2.1372,2.1398,2.1399,2.1474,2.1475,2.1566,2.1567,0,0,0,0,0,0,0,0,0,0,0,2.1372,2.1372,2.1373,2.14,2.1474,2.1475,2.1566,2.1511,0,0,0,0,0,0,0,0,0,0,2.1439,2.1411,2.1372,2.1373,2.14,2.1474,2.1475,2.1509,2.1515,2.153,0,2.1542,0,2.1556,2.1573,2.1573,0,0,0,2.1402,2.1406,2.143,2.1373,2.1401,2.1474,2.1441,2.1512,2.1519,2.1538,2.1544,2.1547,2.1558,2.1574,2.1574,2.1654,2.1654,0,0,2.1398,2.1383,2.1425,2.1434,2.1421,2.1439,2.1444,2.1516,2.1522,2.1544,2.155,2.1559,2.1574,2.1575,2.1654,2.1654,0,0,0,2.1384,2.138,2.1402,2.143,2.1444,2.1441,2.1446,2.1518,2.1527,2.1551,2.156,2.1575,2.1576,2.1654,2.1654,2.1653,0,0,0,2.1382,2.1372,2.14,2.1392,2.1442,2.1482,2.1447,2.1522,2.153,2.156,2.1575,2.1577,2.1653,2.1654,2.1652,2.1654,0,0,0,2.1368,2.1371,2.138,2.1391,2.1423,2.1481,2.1494,2.1524,2.1536,2.1573,2.1577,2.1653,2.1654,2.1652,2.1654,2.1673,0,0,0,2.1349,2.1377,2.138,2.1415,2.1422,2.1479,2.1493,2.1536,2.1568,2.1575,2.1653,2.1654,2.1651,2.1653,2.1672,2.1687,2.1691,0,0,2.1376,2.138,2.1401,2.1406,2.1459,2.1469,2.1522,2.1564,2.1581,2.1629,2.1631,2.1652,2.1654,2.1673,2.1718,2.1722,0,0,0,2.1405,2.1421,2.1438,2.1467,2.1501,2.153,2.1566,2.1583,2.1624,2.1602,2.1664,2.1665,2.1677,2.1685,2.1688,2.17,2.1656,2.1656,2.1656,2.1422,2.1443,2.1481,2.1511,2.1539,2.1577,2.1603,2.1632,2.1643,2.1658,2.1672,2.1698,2.1706,2.1708,2.172,2.1681,2.1681,2.1681,2.1681,2.1464,2.149,2.1507,2.1549,2.1572,2.1608,2.1647,2.1654,2.1692,2.1688,2.1699,2.1693,2.1711,2.1723,2.1681,2.1681,2.1681,2.1681,2.1681,2.1479,2.1495,2.1514,2.1561,2.1594,2.1624,2.1661,2.1679,2.1697,2.1708,2.1727,2.1727,2.1731,2.1716,2.1716,2.1716,2.1716,2.1716,2.1716,2.1486,2.1508,2.1536,2.1576,2.1598,2.163,2.167,2.1693,2.1724,2.1735,2.1735,2.1747,2.1709,2.17,2.1717,2.1717,2.1717,2.1717,2.1717,2.1524,2.1519,2.1562,2.1585,2.1633,2.1667,2.169,2.1736,2.1758,2.1776,2.1786,2.1754,2.1759,2.1757,2.175,2.178,2.178,2.178,2.178,2.1537,2.1541,2.1591,2.1627,2.1664,2.169,2.1741,2.1773,2.1805,2.182,2.1818,2.181,2.1807,2.1814,2.1811,2.1804,2.1848,2.1848,2.1848,2.1562,2.1571,2.161,2.1641,2.1681,2.1716,2.1765,2.1806,2.1842,2.1851,2.1833,2.183,2.1817,2.1811,2.182,2.1815,2.1803,0,0]}]]